Regional Weather Roundup
Issued by NWS

Home | Current Version | Previous Version | Graphics & Text | Print | Product List | Glossary On
Versions: 1 2 3 4 5 6 7 8 9 10 11 12 13 14 15 16 17 18 19 20 21 22 23 24 25 26 27 28 29 30 31 32 33 34 35 36 37 38 39 40 41 42 43 44 45 46 47 48 49 50
000
ASUS43 KMPX 011510
RWRMN
WEATHER ROUNDUP FOR MINNESOTA
NATIONAL WEATHER SERVICE TWIN CITIES/CHANHASSEN MN
900 AM CST SUN FEB 01 2015


NOTE: "FAIR" INDICATES FEW OR NO CLOUDS BELOW 12,000 FEET WITH NO
SIGNIFICANT WEATHER AND/OR OBSTRUCTIONS TO VISIBILITY. N/A MEANS
CURRENT SKY AND/OR WEATHER CONDITIONS ARE NOT AVAILABLE.

MNZ060>063-068>070-011600-
   Twin Cities Metro

CITY           SKY/WX    TMP DP  RH WIND       PRES   REMARKS
TWIN CITIES    CLOUDY    13   3  64 N18       30.24R WCI  -4
ST PAUL        CLOUDY    13   2  61 NE16      30.27R WCI  -3
CRYSTAL        CLOUDY    14   0  53 NE15G21   30.24R WCI  -1
BLAINE         CLOUDY    14   1  57 MISG      30.25R
LAKEVILLE      LGT SNOW  10   7  85 NE18G24   30.20S WCI  -8
EDEN PRAIRIE   CLOUDY    14   4  64 NE17G23   30.21S WCI  -3
SOUTH ST PAUL  CLOUDY    13   2  62 N14G24    30.24S WCI  -2
LAKE ELMO      CLOUDY    12   3  67 NE14G21   30.25R WCI  -3
$$
MNZ001>005-007-008-013>017-022>024-027-028-011600-
   Northwest Minnesota

CITY           SKY/WX    TMP DP  RH WIND       PRES   REMARKS
BEMIDJI        MOCLDY   -13 -18  77 N6        30.43R WCI -27
HALLOCK        PTCLDY   -15 -22  70 N5        30.58S WCI -27
ROSEAU         MOCLDY   -17 -24  70 N3        30.54S
WARROAD        MOCLDY   -20 -27  69 CALM      30.52R
THIEF RVR FALL PTCLDY   -15 -17  91 N10       30.50S WCI -35
CROOKSTON      PTCLDY   -11 -18  70 N12       30.57R WCI -31
FOSSTON        FAIR     -13 -18  77 N12       30.47R WCI -33
DETROIT LAKES  PTCLDY    -4 -13  65 N5        30.41R WCI -15
MOORHEAD       PTCLDY    -6 -11  77 N17       30.50R WCI -28
PARK RAPIDS    PTSUNNY   -7 -16  65 N12       30.38R WCI -26
MAHNOMEN       FAIR      -9 -16  72 N13       30.45R WCI -30
$$
MNZ006-009>011-018-025>026-011600-
   North Central Minnesota

CITY           SKY/WX    TMP DP  RH WIND       PRES   REMARKS
BAUDETTE       PTCLDY   -17 -22  78 N8        30.48F WCI -35
FLAG ISLAND    PTCLDY   -22 -27  76 NW9       30.51S WCI -42
INTL FALLS     HAZE     -16 -22  74 N6        30.47S VSB 1   WCI -31
WASKISH        MOCLDY   -15 -18  84 CALM      30.47R
BIG FORK       MOSUNNY  -13 -18  77 N3        30.42S
LONGVILLE      CLOUDY    -8 -17  65 N6        30.39R WCI -21
GRAND RAPIDS   MOSUNNY   -9 -17  70 N9        30.37R WCI -27
CRANE LAKE     PTSUNNY  -26 -33  68 CALM      30.48S
ORR            PTSUNNY  -18 -26  69 CALM      30.39S
COOK           PTSUNNY  -17 -20  83 CALM      30.41S
WALKER         PTSUNNY  -10 -17  72 N7        30.41S WCI -25
$$
MNZ012-019>021-037-011600-
   Northeast Minnesota

CITY           SKY/WX    TMP DP  RH WIND       PRES   REMARKS
DULUTH         PTSUNNY   -3 -11  68 N9        30.32R WCI -19
ELY            MOSUNNY  -17 -22  76 CALM      30.39S
HIBBING        PTSUNNY  -11 -19  68 N6        30.39R WCI -25
EVELETH        MOSUNNY   -9 -18  64 NE10      30.38S WCI -28
DULUTH HARBOR  PTSUNNY   10   5  79 NE24      30.39R WCI -10
TWO HARBORS    PTSUNNY    1 -13  51 N7        30.35R WCI -11
SILVER BAY     PTSUNNY   -2 -17  50 N3        30.37R
GRAND MARAIS     N/A     -2 -18  46 MISG      30.45F
G MARAIS ARPRT MOSUNNY  -15 -24  64 N8        30.30S WCI -32
$$
MNZ029>031-032-039>041-046>048-054>057-064-011600-
   West Central Minnesota

CITY           SKY/WX    TMP DP  RH WIND       PRES   REMARKS
FERGUS FALLS   PTCLDY     0 -15  50 N12       30.44R WCI -18
WHEATON        PTSUNNY   -2  -9  71 N14G26    30.43R WCI -21
MORRIS         MOSUNNY    3  -6  66 N16       30.34R WCI -16
ALEXANDRIA     SUNNY      0  -7  72 N14       30.32R WCI -19
ELBOW LAKE     FAIR       1  -8  67 N10       30.36R WCI -15
WADENA         PTSUNNY   -4 -13  65 N12       30.36R WCI -22
GLENWOOD       MOSUNNY    1  -4  78 N16G22    30.30R WCI -18
APPLETON       PTSUNNY    9  -2  61 N20       30.34R WCI -11
BENSON         PTSUNNY    7  -2  66 NE12      30.32R WCI  -9
ORTONVILLE     PTSUNNY    1  -8  66 N23       30.36R WCI -21
MADISON        MOSUNNY   10   1  67 N20G25    30.33R WCI  -8
WILLMAR        FAIR       9   0  66 NE21G26   30.28R WCI -11
$$
MNZ033>034-036-042>043-049>051-058-059-011600-
   Central Minnesota

CITY           SKY/WX    TMP DP  RH WIND       PRES   REMARKS
ST CLOUD       PTSUNNY    6  -2  69 N12G21    30.30R WCI  -9
SAUK CENTRE    CLOUDY     3  -4  70 N12       30.31S WCI -13
PAYNESVILLE    PTSUNNY    3  -3  74 N17G25    30.29R WCI -17
AITKIN         PTSUNNY    1  -9  60 N7        30.35R WCI -11
PINE RIVER     CLOUDY    -6 -11  77 N12       30.39R WCI -24
BRAINERD       MOSUNNY   -1  -9  68 NE9       30.36R WCI -16
STAPLES        CLOUDY    -2  -9  71 N6        30.35R WCI -14
LONG PRAIRIE   FAIR       1  -6  71 N14       30.32R WCI -17
LITTLE FALLS   PTSUNNY    3  -6  66 N6        30.34R WCI  -8
LITCHFIELD     CLOUDY     9   1  72 N20G25    30.26S WCI -11
BUFFALO        FLURRIES  11   4  73 N15       30.27S WCI  -6
MAPLE LAKE     CLOUDY    11   5  75 N13       30.27S WCI  -4
$$
MNZ037-044-045-052-053-011600-
   East Central Minnesota

CITY           SKY/WX    TMP DP  RH WIND       PRES   REMARKS
PRINCETON      PTSUNNY   10   1  67 N13G18    30.29S WCI  -5
MORA           PTSUNNY    7   0  72 N7        30.34R WCI  -5
CAMBRIDGE      MOSUNNY   10   1  67 N8G17     30.28R WCI  -1
RUSH CITY      PTSUNNY   11   2  67 NE12G17   30.31R WCI  -3
MOOSE LAKE     PTSUNNY    3  -4  72 N6        30.33R WCI  -8
HINCKLEY       PTSUNNY    7   1  78 N8        30.33R WCI  -6
CLOQUET        PTSUNNY   -2  -9  71 N8        30.33R WCI -17
MCGREGOR       PTSUNNY    1  -8  66 N8        30.36R WCI -12
$$
MNZ071>073-080-081-089-090-097-098-011600-
   Southwest Minnesota

CITY           SKY/WX    TMP DP  RH WIND       PRES   REMARKS
MONTEVIDEO     CLOUDY     9   1  72 NE17G23   30.31R WCI -10
GRANITE FALLS  CLOUDY     9   2  72 N18       30.29R WCI  -9
CANBY          CLOUDY     6  -1  74 N15G25    30.31R WCI -12
MARSHALL       CLOUDY     9  -2  61 N21G29    30.26R WCI -11
REDWOOD FALLS  LGT SNOW  11   5  77 N13G24    30.24R WCI  -4
OLIVIA         FLURRIES  10   5  79 NE21      30.25R WCI  -9
PIPESTONE      LGT SNOW   7   1  78 NE23      30.16R VSB 1   WCI -14
WINDOM         SNOW      12   9  85 N28G33    30.14R VSB 1/2 WCI  -9
WORTHINGTON    CLOUDY    28   3  34 N28       30.12R VSB 1/2 WCI  13
JACKSON        CLOUDY    14  10  85 N26G33    30.10R FOG     WCI  -6
TRACY          LGT SNOW  10   7  86 N16G24    30.21R WCI  -7
SLAYTON        FOG        9   5  85 N24       30.16R VSB 1   WCI -12
$$
MNZ065>067-074>077-082>085-091>093-011600-
   South Central Minnesota

CITY           SKY/WX    TMP DP  RH WIND       PRES   REMARKS
MANKATO        CLOUDY   N/A N/A N/A NE22G30   30.15R VSB 3/4
NEW ULM        LGT SNOW  12   9  85 N13G22    30.19R WCI  -3
ST JAMES       LGT SNOW  16  10  79 N20       30.17R VSB 3/4 WCI  -1
FAIRMONT       CLOUDY    16  10  79 N16G26    30.09R VSB 1   WCI   0
GLENCOE        CLOUDY    13   8  79 N12G22    30.22R WCI   0
FARIBAULT      LGT SNOW  12   9  85 N16G24    30.16R WCI  -4
OWATONNA       LGT SNOW  14   9  79 NE20G26   30.12R WCI  -3
WASECA         LGT SNOW  14  10  85 NE24G31   30.13R WCI  -5
ALBERT LEA     LGT SNOW  16  12  86 NE17G25   30.06R WCI   0
$$
MNZ078>079-086>088-094>096-011600-
   Southeast Minnesota

CITY           SKY/WX    TMP DP  RH WIND       PRES   REMARKS
ROCHESTER      LGT SNOW  13   9  84 NE22G32   30.07S VSB 3/4 WCI  -6
RED WING       LGT SNOW  12   7  79 E13       30.21R WCI  -3
STANTON        LGT SNOW  14   9  83 NE21      30.17S WCI  -4
DODGE CENTER   LGT SNOW  12  10  92 NE17G24   30.09R WCI  -5
WINONA         LGT SNOW  16  12  86 NE9G18    30.18R WCI   4
AUSTIN         LGT SNOW  16  10  79 NE20G30   30.04S WCI  -1
PRESTON        CLOUDY    13  10  87 NE20G26   30.05S WCI  -5
$$
ABBREVIATIONS USED IN REMARKS
   TC - TEMPERATURES IN CELSIUS
  WCI - WIND CHILL INDEX
   HX - HEAT INDEX
  VSB - VISIBILITY
$$



USA.gov is the U.S. government's official web portal to all federal, state and local government web resources and services.